Regional Weather Roundup
Issued by NWS

Home | Current Version | Previous Version | Text Only | Print | Product List | Glossary Off
Versions: 1 2 3 4 5 6 7 8 9 10 11 12 13 14 15 16 17 18 19 20 21 22 23 24 25 26 27 28

000
ASUS45 KBOI 281310
RWRID

IDAHO REGIONAL WEATHER ROUNDUP
NATIONAL WEATHER SERVICE BOISE ID
700 AM MDT SAT MAY 28 2016

NOTE: "FAIR" INDICATES FEW OR NO CLOUDS BELOW 12000 FEET
WITH NO SIGNIFICANT WEATHER AND/OR OBSTRUCTIONS TO VISIBILITY

IDZ012-014-281400-
SOUTHWEST IDAHO


CITY           SKY/WX    TMP DP  RH WIND       PRES   REMARKS
BOISE          MOCLDY    44  31  60 CALM      30.07R
CALDWELL       MOCLDY    43  33  68 W5        30.08R
MOUNTAIN HOME  PTCLDY    47  35  64 W5        30.06R
$$

IDZ016-017-281400-
SOUTHCENTRAL IDAHO


CITY           SKY/WX    TMP DP  RH WIND       PRES   REMARKS
BURLEY         CLEAR     42  31  64 SW8       30.05R
JEROME         CLEAR     43  31  62 S9        30.06R
TWIN FALLS     CLEAR     42  29  59 SW14      30.05R
$$

IDZ019>023-281400-
SOUTHEAST IDAHO


CITY           SKY/WX    TMP DP  RH WIND       PRES   REMARKS
IDAHO FALLS    SUNNY     44  30  57 S12       30.03R
POCATELLO      CLEAR     43  30  60 SW9       30.05R
REXBURG        MOSUNNY   44  28  53 S9        30.02R
$$

IDZ006-010-011-018-031-032-281400-
CENTRAL IDAHO MOUNTAINS


CITY           SKY/WX    TMP DP  RH WIND       PRES   REMARKS
MCCALL         CLEAR     31  29  92 CALM      30.04R
HAILEY         CLEAR     37  32  81 W7        30.05R WCI  32
STANLEY          N/A     26  22  84 CALM      30.07R
SALMON         CLOUDY    43  36  75 CALM      30.01S
CHALLIS        MOCLDY    40  33  76 CALM      30.03R
$$

IDZ002-004-006-007-026-281400-
NORTHERN IDAHO


CITY           SKY/WX    TMP DP  RH WIND       PRES   REMARKS
LEWISTON       MOCLDY    46  38  73 CALM      30.07R
LOWELL           N/A     44  41  89 CALM      30.11R
COEUR D`ALENE  PTCLDY    45  34  65 CALM      30.02R
MULLAN PASS    PTCLDY    33  28  81 SW8       30.02R WCI  26
$$




USA.gov is the U.S. government's official web portal to all federal, state and local government web resources and services.